TimeEST,TemperatureF,Dew PointF,Humidity,Sea Level PressureIn,VisibilityMPH,Wind Direction,Wind SpeedMPH,Gust SpeedMPH,PrecipitationIn,Events,Conditions,WindDirDegrees,DateUTC
12:39 AM,51.8,48.2,88,30.26,8.0,Calm,Calm,-,N/A,,Scattered Clouds,0,2012-12-04 05:39:00
12:54 AM,51.1,48.0,89,30.25,8.0,SE,5.8,-,N/A,,Scattered Clouds,130,2012-12-04 05:54:00
1:54 AM,48.9,46.9,93,30.25,7.0,Calm,Calm,-,N/A,,Scattered Clouds,0,2012-12-04 06:54:00
2:54 AM,50.0,48.0,93,30.25,7.0,Calm,Calm,-,N/A,,Overcast,0,2012-12-04 07:54:00
3:54 AM,52.0,48.9,89,30.25,7.0,Calm,Calm,-,N/A,,Overcast,0,2012-12-04 08:54:00
4:54 AM,51.1,48.9,92,30.25,7.0,East,4.6,-,N/A,,Overcast,80,2012-12-04 09:54:00
5:54 AM,52.0,48.9,89,30.26,7.0,ESE,3.5,-,N/A,,Mostly Cloudy,110,2012-12-04 10:54:00
6:54 AM,52.0,48.9,89,30.25,7.0,Calm,Calm,-,N/A,,Overcast,0,2012-12-04 11:54:00
7:54 AM,51.1,48.0,89,30.25,8.0,Calm,Calm,-,N/A,,Mostly Cloudy,0,2012-12-04 12:54:00
8:54 AM,55.9,51.1,84,30.26,8.0,Calm,Calm,-,N/A,,Mostly Cloudy,0,2012-12-04 13:54:00
9:54 AM,57.0,51.1,81,30.26,8.0,South,4.6,-,N/A,,Mostly Cloudy,180,2012-12-04 14:54:00
10:50 AM,60.8,51.8,72,30.24,10.0,South,5.8,-,N/A,,Mostly Cloudy,190,2012-12-04 15:50:00
10:54 AM,60.1,52.0,75,30.24,10.0,SSW,6.9,-,N/A,,Mostly Cloudy,200,2012-12-04 15:54:00
11:54 AM,63.0,52.0,67,30.20,10.0,SSW,4.6,-,N/A,,Scattered Clouds,200,2012-12-04 16:54:00
12:54 PM,64.9,53.1,65,30.17,10.0,SSW,6.9,-,N/A,,Mostly Cloudy,200,2012-12-04 17:54:00
1:54 PM,64.0,53.1,67,30.15,10.0,SSW,5.8,-,N/A,,Mostly Cloudy,200,2012-12-04 18:54:00
2:54 PM,64.9,53.1,65,30.14,10.0,West,4.6,-,N/A,,Mostly Cloudy,260,2012-12-04 19:54:00
3:54 PM,63.0,53.1,70,30.13,10.0,South,3.5,-,N/A,,Mostly Cloudy,180,2012-12-04 20:54:00
4:54 PM,62.1,53.1,72,30.12,10.0,Calm,Calm,-,N/A,,Mostly Cloudy,0,2012-12-04 21:54:00
5:54 PM,57.9,51.1,78,30.10,10.0,SSE,3.5,-,N/A,,Scattered Clouds,160,2012-12-04 22:54:00
6:54 PM,60.1,52.0,75,30.09,10.0,South,6.9,-,N/A,,Mostly Cloudy,180,2012-12-04 23:54:00
7:54 PM,57.0,50.0,77,30.08,10.0,South,5.8,-,N/A,,Mostly Cloudy,190,2012-12-05 00:54:00
8:54 PM,57.9,50.0,75,30.06,10.0,SSW,4.6,-,N/A,,Mostly Cloudy,200,2012-12-05 01:54:00
9:54 PM,57.9,51.1,78,30.04,10.0,SSW,6.9,-,N/A,,Overcast,210,2012-12-05 02:54:00
10:54 PM,59.0,51.1,75,30.02,10.0,SSW,9.2,-,N/A,,Overcast,200,2012-12-05 03:54:00
11:54 PM,59.0,50.0,72,30.00,10.0,SSW,10.4,-,N/A,,Mostly Cloudy,200,2012-12-05 04:54:00